When you browse on this site, cookies collect data to enhance your experience and personalize the content and advertising you see.
Visit our Privacy Policy to learn more. By continuing to use the site, you agree to this use of cookies and data.
EN

Hourly Weather Burdygino

Today, 20 September, Sunday

Time Temperature Precipitation Wind Pressure Humidity
00:00 +10°C° 1 mm 5 mps 736 mmHg 92%
01:00 +10°C° 1 mm 5 mps 735 mmHg 91%
02:00 +9°C° 2 mm 6 mps 735 mmHg 92%
03:00 +9°C° 2 mm 7 mps 736 mmHg 92%
04:00 +7°C° 2 mm 8 mps 736 mmHg 92%
05:00 +7°C° 1.3 mm 8 mps 736 mmHg 90%
06:00 +6°C° 1.3 mm 9 mps 737 mmHg 87%
07:00 +6°C° 1.3 mm 10 mps 738 mmHg 85%
08:00 +6°C° 0 mm 10 mps 739 mmHg 80%
09:00 +7°C° 0 mm 10 mps 740 mmHg 75%
10:00 +7°C° 0 mm 9 mps 741 mmHg 70%
11:00 +8°C° 0.1 mm 9 mps 741 mmHg 68%
12:00 +8°C° 0.1 mm 9 mps 742 mmHg 67%
13:00 +10°C° 0.1 mm 8 mps 742 mmHg 65%
14:00 +10°C° 0.1 mm 8 mps 743 mmHg 64%
15:00 +10°C° 0.1 mm 7 mps 743 mmHg 63%
16:00 +11°C° 0.1 mm 7 mps 743 mmHg 63%
17:00 +10°C° 0.2 mm 6 mps 743 mmHg 68%
18:00 +9°C° 0.2 mm 5 mps 744 mmHg 74%
19:00 +8°C° 0.2 mm 4 mps 744 mmHg 80%
20:00 +7°C° 0.1 mm 5 mps 744 mmHg 81%
21:00 +6°C° 0.1 mm 5 mps 745 mmHg 83%
22:00 +5°C° 0.1 mm 6 mps 745 mmHg 85%
23:00 +5°C° 0 mm 6 mps 746 mmHg 85%

Tomorrow, 21 September, Monday

Time Temperature Precipitation Wind Pressure Humidity
00:00 +4°C° 0 mm 6 mps 746 mmHg 85%
01:00 +4°C° 0 mm 6 mps 746 mmHg 86%
02:00 +4°C° 0 mm 7 mps 747 mmHg 85%
03:00 +4°C° 0 mm 7 mps 747 mmHg 84%
04:00 +4°C° 0 mm 7 mps 748 mmHg 83%
05:00 +4°C° 0 mm 7 mps 748 mmHg 84%
06:00 +4°C° 0 mm 6 mps 749 mmHg 85%
07:00 +3°C° 0 mm 6 mps 749 mmHg 86%
08:00 +4°C° 0 mm 6 mps 750 mmHg 83%
09:00 +5°C° 0 mm 7 mps 750 mmHg 79%
10:00 +5°C° 0 mm 7 mps 750 mmHg 76%
11:00 +6°C° 0.1 mm 7 mps 751 mmHg 73%
12:00 +6°C° 0.1 mm 7 mps 751 mmHg 70%
13:00 +8°C° 0.1 mm 7 mps 751 mmHg 68%
14:00 +8°C° 0 mm 7 mps 751 mmHg 67%
15:00 +8°C° 0 mm 7 mps 751 mmHg 67%
16:00 +8°C° 0 mm 6 mps 751 mmHg 66%
17:00 +8°C° 0 mm 5 mps 751 mmHg 68%
18:00 +8°C° 0 mm 4 mps 751 mmHg 70%
19:00 +8°C° 0 mm 3 mps 751 mmHg 71%
20:00 +7°C° 0 mm 4 mps 751 mmHg 71%
21:00 +7°C° 0 mm 4 mps 751 mmHg 70%
22:00 +8°C° 0 mm 4 mps 751 mmHg 70%
23:00 +7°C° 0 mm 5 mps 751 mmHg 70%

Day after tomorrow, 22 September, Tuesday

Time Temperature Precipitation Wind Pressure Humidity
00:00 +7°C° 0 mm 5 mps 751 mmHg 71%
01:00 +7°C° 0 mm 5 mps 750 mmHg 71%
02:00 +7°C° 0 mm 5 mps 750 mmHg 73%
03:00 +8°C° 0 mm 5 mps 751 mmHg 75%
04:00 +8°C° 0 mm 5 mps 751 mmHg 76%
05:00 +7°C° 0 mm 5 mps 751 mmHg 80%
06:00 +7°C° 0 mm 5 mps 751 mmHg 84%
07:00 +7°C° 0 mm 4 mps 752 mmHg 87%
08:00 +8°C° 0 mm 5 mps 752 mmHg 83%
09:00 +9°C° 0 mm 5 mps 753 mmHg 80%
10:00 +10°C° 0 mm 5 mps 753 mmHg 76%
11:00 +12°C° 0 mm 5 mps 753 mmHg 72%
12:00 +13°C° 0 mm 5 mps 753 mmHg 67%
13:00 +14°C° 0 mm 5 mps 753 mmHg 63%
14:00 +14°C° 0 mm 5 mps 753 mmHg 62%
15:00 +14°C° 0 mm 5 mps 753 mmHg 60%
16:00 +15°C° 0 mm 5 mps 753 mmHg 59%
17:00 +14°C° 0 mm 5 mps 753 mmHg 64%
18:00 +14°C° 0 mm 4 mps 753 mmHg 69%
19:00 +13°C° 0 mm 4 mps 753 mmHg 75%
20:00 +13°C° 0 mm 4 mps 752 mmHg 74%
21:00 +13°C° 0 mm 5 mps 752 mmHg 73%
22:00 +11°C° 0 mm 6 mps 752 mmHg 72%
23:00 +11°C° 0 mm 6 mps 751 mmHg 72%

23 September, Wednesday

Time Temperature Precipitation Wind Pressure Humidity
00:00 +11°C° 0 mm 6 mps 751 mmHg 71%
01:00 +11°C° 0 mm 7 mps 751 mmHg 71%
02:00 +11°C° 0 mm 6 mps 750 mmHg 72%
03:00 +11°C° 0 mm 6 mps 750 mmHg 74%
04:00 +11°C° 0 mm 6 mps 750 mmHg 75%
05:00 +10°C° 0 mm 6 mps 750 mmHg 76%
06:00 +10°C° 0 mm 6 mps 750 mmHg 78%
07:00 +10°C° 0 mm 6 mps 750 mmHg 80%
08:00 +11°C° 0 mm 7 mps 750 mmHg 77%
09:00 +14°C° 0 mm 7 mps 750 mmHg 74%
10:00 +15°C° 0 mm 7 mps 750 mmHg 71%
11:00 +16°C° 0 mm 8 mps 750 mmHg 67%
12:00 +17°C° 0 mm 8 mps 750 mmHg 63%
13:00 +18°C° 0 mm 8 mps 750 mmHg 59%
14:00 +18°C° 0 mm 8 mps 750 mmHg 57%
15:00 +18°C° 0 mm 8 mps 751 mmHg 54%
16:00 +18°C° 0 mm 8 mps 751 mmHg 52%
17:00 +17°C° 0 mm 6 mps 751 mmHg 56%
18:00 +15°C° 0 mm 5 mps 752 mmHg 60%
19:00 +13°C° 0 mm 4 mps 752 mmHg 65%
20:00 +12°C° 0 mm 4 mps 753 mmHg 67%
21:00 +12°C° 0 mm 3 mps 753 mmHg 70%
22:00 +11°C° 0 mm 3 mps 754 mmHg 73%
23:00 +10°C° 0 mm 2 mps 754 mmHg 75%

24 September, Thursday

Time Temperature Precipitation Wind Pressure Humidity
00:00 +10°C° 0 mm 2 mps 755 mmHg 77%
01:00 +9°C° 0 mm 2 mps 755 mmHg 79%
02:00 +10°C° 0 mm 1 mps 756 mmHg 79%
03:00 +9°C° 0 mm 1 mps 756 mmHg 79%
04:00 +9°C° 0 mm 1 mps 756 mmHg 80%
05:00 +9°C° 0 mm 1 mps 757 mmHg 80%
06:00 +9°C° 0 mm 1 mps 757 mmHg 79%
07:00 +8°C° 0 mm 1 mps 758 mmHg 79%
08:00 +10°C° 0 mm 1 mps 758 mmHg 72%
09:00 +12°C° 0 mm 1 mps 758 mmHg 65%
10:00 +13°C° 0 mm 2 mps 759 mmHg 57%
11:00 +14°C° 0 mm 2 mps 759 mmHg 54%
12:00 +15°C° 0 mm 2 mps 759 mmHg 50%
13:00 +16°C° 0 mm 2 mps 759 mmHg 46%
14:00 +16°C° 0 mm 2 mps 759 mmHg 46%
15:00 +17°C° 0 mm 2 mps 759 mmHg 45%
16:00 +17°C° 0 mm 2 mps 759 mmHg 45%
17:00 +15°C° 0 mm 2 mps 759 mmHg 50%
18:00 +14°C° 0 mm 2 mps 760 mmHg 55%
19:00 +13°C° 0 mm 2 mps 760 mmHg 60%
20:00 +12°C° 0 mm 2 mps 760 mmHg 62%
21:00 +12°C° 0 mm 2 mps 760 mmHg 64%
22:00 +10°C° 0 mm 2 mps 760 mmHg 66%
23:00 +9°C° 0 mm 2 mps 760 mmHg 68%

25 September, Friday

Time Temperature Precipitation Wind Pressure Humidity
00:00 +9°C° 0 mm 2 mps 761 mmHg 70%
01:00 +8°C° 0 mm 2 mps 761 mmHg 72%
02:00 +8°C° 0 mm 2 mps 761 mmHg 73%
03:00 +8°C° 0 mm 2 mps 761 mmHg 75%
04:00 +7°C° 0 mm 2 mps 761 mmHg 77%
05:00 +7°C° 0 mm 2 mps 761 mmHg 78%
06:00 +7°C° 0 mm 2 mps 762 mmHg 79%
07:00 +7°C° 0 mm 2 mps 762 mmHg 80%
08:00 +9°C° 0 mm 3 mps 762 mmHg 74%
09:00 +10°C° 0 mm 3 mps 762 mmHg 67%
10:00 +12°C° 0 mm 4 mps 762 mmHg 60%
11:00 +13°C° 0 mm 4 mps 762 mmHg 54%
12:00 +15°C° 0 mm 4 mps 762 mmHg 49%
13:00 +17°C° 0 mm 4 mps 762 mmHg 43%
14:00 +17°C° 0 mm 3 mps 762 mmHg 43%
15:00 +17°C° 0 mm 3 mps 762 mmHg 42%
16:00 +18°C° 0 mm 3 mps 761 mmHg 42%
17:00 +16°C° 0 mm 3 mps 761 mmHg 47%
18:00 +14°C° 0 mm 3 mps 761 mmHg 52%
19:00 +12°C° 0 mm 3 mps 761 mmHg 57%
20:00 +12°C° 0 mm 3 mps 762 mmHg 58%
21:00 +11°C° 0 mm 3 mps 762 mmHg 59%
22:00 +11°C° 0 mm 3 mps 762 mmHg 60%
23:00 +10°C° 0 mm 3 mps 762 mmHg 60%
Show more